TimeCDT,TemperatureF,Dew PointF,Humidity,Sea Level PressureIn,VisibilityMPH,Wind Direction,Wind SpeedMPH,Gust SpeedMPH,PrecipitationIn,Events,Conditions,WindDirDegrees,DateUTC
12:52 AM,35.1,30.0,82,29.81,10.0,SW,6.9,-,N/A,,Mostly Cloudy,230,2013-04-12 05:52:00
1:52 AM,36.0,30.9,82,29.80,10.0,WSW,4.6,-,N/A,,Mostly Cloudy,250,2013-04-12 06:52:00
2:52 AM,35.1,30.0,82,29.80,10.0,West,6.9,-,N/A,,Partly Cloudy,260,2013-04-12 07:52:00
3:52 AM,35.1,30.0,82,29.81,10.0,West,6.9,-,N/A,,Partly Cloudy,260,2013-04-12 08:52:00
4:52 AM,37.0,30.9,79,29.83,10.0,West,9.2,-,N/A,,Mostly Cloudy,280,2013-04-12 09:52:00
5:52 AM,37.0,28.0,70,29.86,10.0,West,11.5,-,N/A,,Overcast,280,2013-04-12 10:52:00
6:52 AM,36.0,27.0,70,29.87,10.0,WNW,11.5,-,N/A,,Overcast,290,2013-04-12 11:52:00
7:52 AM,36.0,26.1,67,29.89,10.0,West,10.4,-,N/A,,Clear,280,2013-04-12 12:52:00
8:52 AM,37.9,27.0,65,29.92,10.0,WNW,15.0,-,N/A,,Clear,290,2013-04-12 13:52:00
9:52 AM,39.9,27.0,60,29.93,10.0,West,17.3,27.6,N/A,,Scattered Clouds,280,2013-04-12 14:52:00
10:29 AM,39.9,28.0,63,29.93,10.0,WNW,12.7,21.9,N/A,,Mostly Cloudy,300,2013-04-12 15:29:00
10:52 AM,42.1,28.0,58,29.96,10.0,West,16.1,26.5,N/A,,Mostly Cloudy,280,2013-04-12 15:52:00
10:59 AM,43.0,28.0,56,29.94,10.0,West,16.1,25.3,N/A,,Mostly Cloudy,260,2013-04-12 15:59:00
11:52 AM,45.0,28.0,52,29.96,10.0,West,13.8,26.5,N/A,,Clear,270,2013-04-12 16:52:00
12:52 PM,48.0,28.9,48,29.98,10.0,West,15.0,24.2,N/A,,Clear,280,2013-04-12 17:52:00
1:52 PM,48.9,30.9,50,29.97,10.0,WNW,15.0,28.8,N/A,,Clear,300,2013-04-12 18:52:00
2:52 PM,50.0,30.9,48,29.97,10.0,West,21.9,26.5,N/A,,Clear,280,2013-04-12 19:52:00
3:52 PM,51.1,32.0,48,29.97,10.0,WNW,11.5,25.3,N/A,,Partly Cloudy,290,2013-04-12 20:52:00
4:52 PM,52.0,33.1,49,29.97,10.0,West,19.6,26.5,N/A,,Partly Cloudy,270,2013-04-12 21:52:00
5:52 PM,52.0,33.1,49,29.96,10.0,West,11.5,-,N/A,,Clear,280,2013-04-12 22:52:00
6:52 PM,51.1,33.1,50,29.97,10.0,WNW,13.8,-,N/A,,Clear,290,2013-04-12 23:52:00
7:52 PM,48.0,33.1,56,29.97,10.0,WNW,5.8,-,N/A,,Clear,290,2013-04-13 00:52:00
8:52 PM,46.0,33.1,61,29.99,10.0,WSW,4.6,-,N/A,,Clear,250,2013-04-13 01:52:00
9:52 PM,39.0,33.1,79,30.01,10.0,SW,5.8,-,N/A,,Clear,230,2013-04-13 02:52:00
10:52 PM,39.0,33.1,79,30.03,10.0,Calm,Calm,-,N/A,,Clear,0,2013-04-13 03:52:00
11:52 PM,39.0,32.0,76,30.04,10.0,SW,4.6,-,N/A,,Clear,230,2013-04-13 04:52:00